Location: Lussas
(44.6119°N, 4.4726°E)
Time: 19:41:16
(UTC+00:00)

Cosmos 2084 - Pass Details

Date: 26 November 2020
Orbit: 557 x 625 km, 62.8° (Epoch: 27 January)

Event Time Altitude Azimuth Distance (km) Brightness Sun altitude
Exits shadow 04:33:05 83° 169° (S) 631 3.5 -24.4°
Drops below altitude 10° 04:37:28 10° 144° (SE) 1,991 6.7 -23.7°
Sets 04:39:45 0° 144° (SE) 2,894 7.6 -23.3°
